Cloud_Cover
5 10 1 0 0 3 0 0 3 45 90 28 62 100 1 0 0 0 1 0 90 100 68 0 10 56 97 10 5 71 17 5 38 79 69 98 68 47 5 5 5 4 5
5 3 1 0 3 5 4 0 2 60 48 74 100 100 54 100 100 100 100 100 100 47 3 34 4 5 5 7 5 4 20 56 23 28 79 36 5 5 5 5 5 0 3
12 3 5 5 7 9 10 0 3 100 63 5 71 100 31 6 73 100 99 14 4 3 9 2 1 4 3 5 5 5 5 5 4 5 5 5 5 5 5 5 0 2 5
5 0 74 5 0 0 5 0 30 100 6 5 6 32 20 5 15 5 6 5 5 9 9 6 5 5 5 5 5 5 1 5 0 5 5 5 5 5 3 0 0 3 16
34 27 32 5 0 0 0 0 86 25 7 4 1 4 2 2 5 4 5 1 5 2 5 17 5 0 0 5 0 0 0 5 0 5 5 5 5 24 92 100 84 70 38
24 100 74 2 0 0 0 4 5 24 4 2 0 4 2 5 3 5 1 0 0 4 5 7 5 4 5 0 1 1 1 2 4 4 0 5 5 5 5 5 5 16 92
43 42 3 0 0 0 0 0 0 4 5 0 0 2 2 4 42 76 43 4 4 5 37 46 5 9 2 0 5 4 5 3 0 0 5 5 2 3 0 0 0 4 58
5 30 5 1 0 0 0 4 0 3 34 14 5 1 33 5 9 68 100 48 81 13 11 5 4 4 0 0 4 3 0 0 0 2 1 3 0 4 5 5 67 55 61
13 55 57 5 4 0 0 0 5 64 47 96 5 5 16 4 5 35 24 60 5 5 0 2 5 5 3 1 0 4 0 5 6 6 5 5 4 5 5 4 37 92 100
15 7 47 4 5 0 2 5 5 20 90 97 2 5 5 1 42 27 4 5 5 4 4 5 4 5 2 0 1 2 7 10 4 5 25 5 4 5 49 8 7 5 48
70 6 22 95 11 26 30 5 5 48 76 26 5 0 5 5 32 4 5 46 13 4 5 1 1 4 0 0 0 1 4 7 7 5 11 5 5 31 40 47 6 93 100
5 98 8 27 30 74 91 5 6 59 37 5 0 1 3 0 1 0 5 5 5 2 0 0 0 0 5 0 0 2 0 1 2 5 5 4 11 91 5 10 62 100 100
7 99 53 22 71 100 31 19 5 48 6 4 4 1 4 0 0 4 5 2 1 0 0 0 0 0 0 2 3 12 0 0 6 4 5 5 5 35 95 34 9 5 5
5 95 100 96 77 100 100 100 16 76 42 2 2 0 2 0 0 4 1 0 0 0 0 5 4 0 0 0 5 1 2 5 5 0 1 2 6 5 5 5 5 5 5
7 42 58 100 100 80 88 100 10 59 98 7 5 5 1 0 0 0 2 0 5 8 0 25 5 5 10 5 2 6 5 5 5 12 12 5 61 86 68 19 34 77 10
10 46 64 92 100 100 70 49 90 63 42 5 19 4 5 5 5 1 23 0 4 1 5 0 5 18 6 9 40 98 100 100 28 7 5 5 38 55 100 100 100 72 27
0 26 30 50 96 100 100 70 55 58 72 71 62 89 73 58 43 18 12 5 3 4 5 9 65 65 92 100 100 100 100 96 99 96 84 38 11 10 7 76 61 91 70
0 0 54 21 78 100 99 99 60 50 38 38 40 86 55 65 83 86 48 52 29 27 15 9 31 34 97 99 100 100 53 66 88 100 65 75 42 15 61 100 100 100 100
0 0 22 37 81 99 100 98 99 100 100 68 30 88 100 70 75 76 64 43 33 91 93 72 94 100 100 100 100 100 100 100 97 100 45 27 27 49 23 97 100 96 75
0 2 29 83 41 56 100 100 100 94 100 100 98 100 100 61 51 81 100 100 100 100 100 100 100 100 100 100 100 100 98 89 100 100 98 100 96 81 98 74 76 100 100
0 5 8 94 100 75 88 100 100 100 83 100 99 100 100 94 98 93 86 100 100 100 100 100 100 100 100 100 100 100 100 100 100 100 100 100 100 100 85 78 86 100 100
0 0 0 98 100 77 100 100 99 99 99 100 100 100 100 91 94 99 100 100 100 100 100 100 100 100 100 100 100 100 99 100 100 100 90 83 81 76 95 99 91 82 100
0 0 0 15 100 100 100 100 100 100 100 100 100 100 90 100 100 100 100 100 100 100 100 100 100 100 100 100 100 100 100 100 100 100 100 100 98 100 91 99 100 92 100
0 0 0 9 100 100 96 100 100 100 100 100 100 100 100 100 100 100 100 100 100 100 100 100 100 100 100 100 100 100 100 100 100 100 100 100 100 100 95 59 89 74 52
9 0 0 0 37 100 100 100 100 100 100 100 100 100 100 100 100 100 100 100 100 100 100 100 100 100 100 100 100 100 100 100 100 100 100 100 100 100 100 99 98 57 64
0 1 0 0 3 66 100 99 100 100 100 100 100 100 100 100 100 100 100 100 100 100 100 100 100 100 100 100 100 100 100 100 100 100 100 100 100 100 100 100 100 99 100